Location: Township of Marena
(38.1747°N, 99.6798°W)
Time: 02:18:05
(UTC+00:00)

CZ-4 R/B - Pass Details

Date: 26 October 2020
Orbit: 531 x 598 km, 97.7° (Epoch: 24 November)

Event Time Altitude Azimuth Distance (km) Brightness Sun altitude
Rises 01:19:19 0° 169° (S) 2,720 4.8 -18.8°
Reaches altitude 10° 01:21:27 10° 171° (S) 1,820 3.9 -19.2°
Maximum altitude 01:25:23 79° 258° (WSW) 559 1.3 -20.0°
Drops below altitude 10° 01:29:16 10° 345° (NNW) 1,803 4.1 -20.7°
Sets 01:31:23 0° 347° (NNW) 2,693 5.0 -21.2°
